• In Hungary
  • List of Countries
  • For 7 days
  • Water Temperature
  • Satellite Maps
  • Weather Map
  • News
  • Weather Widgets
  • user-avatar
    Login

    Hourly Weather Shrewsbury

    Today, 21 August, Tuesday

    Time Temperature Precipitation Wind Pressure Humidity
    00:00 +19°C° 0 mm 1 mps 758 mmHg 95%
    01:00 +19°C° 0 mm 1 mps 758 mmHg 95%
    02:00 +19°C° 0 mm 1 mps 758 mmHg 95%
    03:00 +19°C° 0 mm 1 mps 758 mmHg 95%
    04:00 +18°C° 0 mm 1 mps 758 mmHg 95%
    05:00 +18°C° 0 mm 1 mps 758 mmHg 95%
    06:00 +18°C° 0 mm 1 mps 758 mmHg 95%
    07:00 +19°C° 0 mm 1 mps 758 mmHg 91%
    08:00 +19°C° 0 mm 2 mps 758 mmHg 86%
    09:00 +20°C° 0 mm 2 mps 758 mmHg 82%
    10:00 +21°C° 0 mm 2 mps 758 mmHg 78%
    11:00 +21°C° 0 mm 3 mps 758 mmHg 75%
    12:00 +22°C° 0 mm 3 mps 758 mmHg 71%
    13:00 +22°C° 0 mm 3 mps 758 mmHg 70%
    14:00 +24°C° 0 mm 3 mps 758 mmHg 69%
    15:00 +24°C° 0 mm 3 mps 757 mmHg 67%
    16:00 +22°C° 0 mm 3 mps 757 mmHg 70%
    17:00 +22°C° 0 mm 3 mps 757 mmHg 73%
    18:00 +21°C° 0 mm 3 mps 756 mmHg 76%
    19:00 +20°C° 0 mm 3 mps 757 mmHg 81%
    20:00 +19°C° 0 mm 3 mps 757 mmHg 86%
    21:00 +18°C° 0 mm 3 mps 757 mmHg 91%
    22:00 +18°C° 0 mm 3 mps 757 mmHg 92%
    23:00 +18°C° 0 mm 3 mps 757 mmHg 92%

    Tomorrow, 22 August, Wednesday

    Time Temperature Precipitation Wind Pressure Humidity
    00:00 +18°C° 0 mm 3 mps 756 mmHg 93%
    01:00 +18°C° 0 mm 4 mps 756 mmHg 92%
    02:00 +18°C° 0 mm 4 mps 756 mmHg 92%
    03:00 +18°C° 0 mm 4 mps 756 mmHg 91%
    04:00 +18°C° 0 mm 4 mps 756 mmHg 92%
    05:00 +18°C° 0 mm 4 mps 756 mmHg 92%
    06:00 +18°C° 0 mm 4 mps 755 mmHg 92%
    07:00 +18°C° 0.2 mm 4 mps 756 mmHg 91%
    08:00 +19°C° 0.2 mm 4 mps 756 mmHg 90%
    09:00 +19°C° 0.2 mm 4 mps 756 mmHg 90%
    10:00 +18°C° 0.3 mm 4 mps 756 mmHg 89%
    11:00 +18°C° 0.3 mm 4 mps 756 mmHg 89%
    12:00 +17°C° 0.3 mm 4 mps 756 mmHg 89%
    13:00 +18°C° 0.1 mm 3 mps 756 mmHg 85%
    14:00 +18°C° 0.1 mm 3 mps 756 mmHg 82%
    15:00 +18°C° 0.1 mm 3 mps 756 mmHg 78%
    16:00 +18°C° 0 mm 3 mps 757 mmHg 77%
    17:00 +17°C° 0 mm 3 mps 757 mmHg 76%
    18:00 +17°C° 0 mm 3 mps 757 mmHg 75%
    19:00 +14°C° 0 mm 3 mps 757 mmHg 79%
    20:00 +13°C° 0 mm 2 mps 758 mmHg 83%
    21:00 +12°C° 0 mm 2 mps 758 mmHg 87%
    22:00 +12°C° 0 mm 2 mps 758 mmHg 87%
    23:00 +10°C° 0 mm 2 mps 758 mmHg 88%

    Day after tomorrow, 23 August, Thursday

    Time Temperature Precipitation Wind Pressure Humidity
    00:00 +10°C° 0 mm 2 mps 758 mmHg 88%
    01:00 +10°C° 0 mm 2 mps 758 mmHg 89%
    02:00 +10°C° 0 mm 2 mps 757 mmHg 90%
    03:00 +10°C° 0 mm 2 mps 757 mmHg 92%
    04:00 +10°C° 0 mm 2 mps 757 mmHg 91%
    05:00 +10°C° 0 mm 3 mps 756 mmHg 91%
    06:00 +11°C° 0 mm 3 mps 756 mmHg 91%
    07:00 +12°C° 0 mm 4 mps 756 mmHg 86%
    08:00 +14°C° 0 mm 4 mps 756 mmHg 81%
    09:00 +15°C° 0 mm 5 mps 756 mmHg 76%
    10:00 +15°C° 0.2 mm 6 mps 756 mmHg 76%
    11:00 +15°C° 0.2 mm 6 mps 755 mmHg 77%
    12:00 +15°C° 0.2 mm 6 mps 755 mmHg 77%
    13:00 +15°C° 0.2 mm 6 mps 755 mmHg 75%
    14:00 +15°C° 0.2 mm 6 mps 755 mmHg 73%
    15:00 +14°C° 0.2 mm 6 mps 755 mmHg 71%
    16:00 +14°C° 0 mm 6 mps 755 mmHg 70%
    17:00 +13°C° 0 mm 5 mps 755 mmHg 68%
    18:00 +13°C° 0 mm 5 mps 755 mmHg 67%
    19:00 +12°C° 0 mm 5 mps 756 mmHg 71%
    20:00 +11°C° 0 mm 4 mps 756 mmHg 75%
    21:00 +10°C° 0 mm 4 mps 757 mmHg 79%
    22:00 +8°C° 0 mm 4 mps 757 mmHg 81%
    23:00 +8°C° 0 mm 4 mps 757 mmHg 84%

    24 August, Friday

    Time Temperature Precipitation Wind Pressure Humidity
    00:00 +8°C° 0 mm 4 mps 757 mmHg 86%
    01:00 +8°C° 0 mm 4 mps 757 mmHg 87%
    02:00 +8°C° 0 mm 4 mps 757 mmHg 88%
    03:00 +8°C° 0 mm 4 mps 757 mmHg 89%
    04:00 +8°C° 0 mm 4 mps 757 mmHg 88%
    05:00 +8°C° 0 mm 4 mps 757 mmHg 88%
    06:00 +8°C° 0 mm 4 mps 758 mmHg 87%
    07:00 +9°C° 0 mm 5 mps 758 mmHg 81%
    08:00 +12°C° 0 mm 5 mps 758 mmHg 75%
    09:00 +13°C° 0 mm 6 mps 758 mmHg 69%
    10:00 +13°C° 0.2 mm 6 mps 758 mmHg 66%
    11:00 +14°C° 0.2 mm 6 mps 758 mmHg 64%
    12:00 +14°C° 0.2 mm 6 mps 758 mmHg 61%
    13:00 +15°C° 0.1 mm 6 mps 758 mmHg 60%
    14:00 +15°C° 0.1 mm 6 mps 757 mmHg 60%
    15:00 +15°C° 0.1 mm 6 mps 757 mmHg 59%
    16:00 +14°C° 0.1 mm 5 mps 757 mmHg 63%
    17:00 +14°C° 0.1 mm 5 mps 757 mmHg 66%
    18:00 +13°C° 0.1 mm 4 mps 757 mmHg 70%
    19:00 +12°C° 0.1 mm 4 mps 757 mmHg 74%
    20:00 +11°C° 0.1 mm 3 mps 756 mmHg 79%
    21:00 +11°C° 0.1 mm 3 mps 756 mmHg 84%
    22:00 +10°C° 0.8 mm 3 mps 756 mmHg 87%
    23:00 +10°C° 0.8 mm 3 mps 755 mmHg 91%

    25 August, Saturday

    Time Temperature Precipitation Wind Pressure Humidity
    00:00 +10°C° 0.8 mm 3 mps 755 mmHg 94%
    01:00 +10°C° 1.4 mm 3 mps 753 mmHg 95%
    02:00 +10°C° 1.4 mm 4 mps 752 mmHg 95%
    03:00 +10°C° 1.4 mm 4 mps 751 mmHg 96%
    04:00 +11°C° 1.5 mm 4 mps 749 mmHg 96%
    05:00 +10°C° 1.5 mm 5 mps 748 mmHg 95%
    06:00 +11°C° 1.5 mm 6 mps 746 mmHg 95%
    07:00 +13°C° 0.7 mm 6 mps 745 mmHg 94%
    08:00 +14°C° 0.7 mm 6 mps 745 mmHg 93%
    09:00 +14°C° 0.7 mm 6 mps 744 mmHg 92%
    10:00 +14°C° 0.1 mm 6 mps 744 mmHg 90%
    11:00 +14°C° 0.1 mm 6 mps 745 mmHg 87%
    12:00 +14°C° 0.1 mm 7 mps 745 mmHg 85%
    13:00 +14°C° 0.1 mm 7 mps 746 mmHg 81%
    14:00 +14°C° 0.1 mm 7 mps 746 mmHg 77%
    15:00 +14°C° 0.1 mm 7 mps 747 mmHg 74%
    16:00 +14°C° 0.1 mm 6 mps 747 mmHg 73%
    17:00 +13°C° 0.1 mm 6 mps 748 mmHg 73%
    18:00 +13°C° 0.1 mm 5 mps 749 mmHg 72%
    19:00 +12°C° 0 mm 5 mps 749 mmHg 75%
    20:00 +10°C° 0 mm 5 mps 750 mmHg 77%
    21:00 +10°C° 0 mm 4 mps 750 mmHg 79%
    22:00 +10°C° 0 mm 4 mps 750 mmHg 80%
    23:00 +8°C° 0 mm 4 mps 751 mmHg 80%

    26 August, Sunday

    Time Temperature Precipitation Wind Pressure Humidity
    00:00 +8°C° 0 mm 5 mps 751 mmHg 81%
    01:00 +8°C° 0 mm 5 mps 752 mmHg 82%
    02:00 +8°C° 0 mm 5 mps 752 mmHg 83%
    03:00 +8°C° 0 mm 5 mps 752 mmHg 84%
    04:00 +8°C° 0 mm 4 mps 753 mmHg 86%
    05:00 +8°C° 0 mm 4 mps 754 mmHg 87%
    06:00 +8°C° 0 mm 4 mps 755 mmHg 88%
    07:00 +10°C° 0 mm 4 mps 755 mmHg 82%
    08:00 +12°C° 0 mm 4 mps 756 mmHg 75%
    09:00 +13°C° 0 mm 4 mps 756 mmHg 69%
    10:00 +14°C° 0 mm 4 mps 757 mmHg 65%
    11:00 +15°C° 0 mm 4 mps 757 mmHg 62%
    12:00 +17°C° 0 mm 4 mps 757 mmHg 58%
    13:00 +17°C° 0 mm 4 mps 758 mmHg 59%
    14:00 +17°C° 0 mm 4 mps 758 mmHg 59%
    15:00 +17°C° 0 mm 4 mps 758 mmHg 59%
    16:00 +15°C° 0 mm 4 mps 758 mmHg 63%
    17:00 +16°C° 0 mm 3 mps 758 mmHg 67%
    18:00 +14°C° 0 mm 3 mps 759 mmHg 71%
    19:00 +13°C° 0 mm 2 mps 759 mmHg 76%
    20:00 +12°C° 0 mm 2 mps 759 mmHg 80%
    21:00 +9°C° 0 mm 2 mps 760 mmHg 85%
    22:00 +9°C° 0 mm 2 mps 760 mmHg 87%
    23:00 +9°C° 0 mm 1 mps 760 mmHg 88%
    Show more